Date String (YYYY-MM-DD hh:mm:ss) UTC,Instrument flags,absolute air pressure of the measurement (hPa),sample flow rate (lpm),inlet stack bypass flow (lpm),air temperature of the measurement (°C),ambient temperature measured by the external sensor (°C),aerosol sample conditioner tube jacket temperature (°C),OPC LED temperature (°C),internal box temperature (°C),relative humidity of the measurement (%),span deviation,mass concentration of particles derived from Lorenz-Mie calculation of OPC scattering (μg/m³),mass concentration of particles derived from Lorenz-Mie calculation of OPC scattering (μg/m³),mass concentration of particles derived from Lorenz-Mie calculation of OPC scattering (μg/m³)
DateTimeUTC,F1_M11,P_M11,Q1_M11,Q2_M11,T1_M11,T2_M11,T3_M11,T4_M11,T5_M11,U1_M11,ZSPAN_M11,X0_M11,X2_M11,X1_M11
2024-03-10 06:00:00,SystemResetWarning,0828.8,4.99,000.00,018.2,016.9,000.0,027.0,020.0,08.2,0000.0,0006.01,0002.13,0001.31
2024-03-10 06:01:00,SystemResetWarning,0828.8,5.00,000.00,018.2,016.9,000.0,027.0,020.0,08.3,0000.0,0006.41,0002.15,0001.31
2024-03-10 06:02:00,SystemResetWarning,0828.7,5.02,000.00,018.2,016.9,000.0,027.0,020.0,08.5,0000.0,0006.36,0002.13,0001.29
2024-03-10 06:03:00,SystemResetWarning,0828.8,4.99,000.00,018.2,016.9,000.0,027.0,020.0,08.7,0000.0,0005.95,0002.09,0001.29
2024-03-10 06:04:00,SystemResetWarning,0828.7,4.99,000.00,018.2,016.9,000.0,027.0,020.0,08.7,0000.0,0005.92,0002.10,0001.28
2024-03-10 06:05:00,SystemResetWarning,0828.8,5.01,000.00,018.2,017.2,000.0,027.1,020.1,08.6,0000.0,0005.27,0002.08,0001.26
2024-03-10 06:06:00,SystemResetWarning,0828.8,5.01,000.00,018.4,018.1,000.0,027.1,020.5,08.8,0000.0,0005.23,0002.08,0001.27
2024-03-10 06:07:00,SystemResetWarning,0828.8,4.98,000.00,018.6,018.8,000.0,027.1,020.9,08.7,0000.0,0005.27,0002.09,0001.26
2024-03-10 06:08:00,SystemResetWarning,0828.8,5.00,000.00,018.7,018.7,000.0,027.1,020.8,08.5,0000.0,0005.06,0002.03,0001.24
2024-03-10 06:09:00,SystemResetWarning,0828.7,5.01,000.00,018.7,018.5,000.0,027.0,020.5,08.5,0000.0,0004.92,0001.96,0001.23
2024-03-10 06:10:00,SystemResetWarning,0828.7,4.99,000.00,018.6,018.3,000.0,027.0,020.4,08.8,0000.0,0005.34,0001.98,0001.24
2024-03-10 06:11:00,SystemResetWarning,0828.7,5.00,000.00,018.6,018.1,000.0,027.0,020.3,08.7,0000.0,0005.35,0001.98,0001.26
2024-03-10 06:12:00,SystemResetWarning,0828.7,4.99,000.00,018.5,017.9,000.0,027.0,020.2,08.5,0000.0,0004.93,0001.98,0001.27
2024-03-10 06:13:00,SystemResetWarning,0828.7,4.99,000.00,018.5,017.8,000.0,027.0,020.1,08.3,0000.0,0005.06,0002.00,0001.29
2024-03-10 06:14:00,SystemResetWarning,0828.7,5.00,000.00,018.5,017.7,000.0,027.0,020.0,08.8,0000.0,0005.22,0002.06,0001.33
2024-03-10 06:15:00,SystemResetWarning,0828.7,5.00,000.00,018.4,017.6,000.0,027.0,020.0,08.7,0000.0,0005.57,0002.09,0001.35
2024-03-10 06:16:00,SystemResetWarning,0828.7,5.01,000.00,018.4,017.5,000.0,027.0,020.0,08.6,0000.0,0005.78,0002.14,0001.37
2024-03-10 06:17:00,SystemResetWarning,0828.7,5.01,000.00,018.4,017.4,000.0,027.0,020.0,08.6,0000.0,0005.84,0002.14,0001.36
2024-03-10 06:18:00,SystemResetWarning,0828.7,5.01,000.00,018.4,017.4,000.0,027.0,020.0,08.7,0000.0,0005.99,0002.18,0001.37
2024-03-10 06:19:00,SystemResetWarning,0828.7,4.99,000.00,018.3,017.3,000.0,027.0,020.0,08.6,0000.0,0006.03,0002.20,0001.39
2024-03-10 06:20:00,SystemResetWarning,0828.7,4.99,000.00,018.3,017.3,000.0,027.0,020.0,08.7,0000.0,0007.28,0002.27,0001.37
2024-03-10 06:21:00,SystemResetWarning,0828.7,5.00,000.00,018.3,017.3,000.0,027.0,020.0,08.9,0000.0,0007.09,0002.24,0001.35
2024-03-10 06:22:00,SystemResetWarning,0828.7,5.01,000.00,018.3,017.3,000.0,027.0,020.0,08.9,0000.0,0006.71,0002.18,0001.32
2024-03-10 06:23:00,SystemResetWarning,0828.7,5.01,000.00,018.3,017.3,000.0,027.0,020.0,09.0,0000.0,0006.80,0002.14,0001.30
2024-03-10 06:24:00,SystemResetWarning,0828.7,4.99,000.00,018.3,017.2,000.0,027.0,020.0,09.0,0000.0,0006.79,0002.14,0001.28
2024-03-10 06:25:00,SystemResetWarning,0828.6,5.00,000.00,018.3,017.2,000.0,027.0,020.0,08.7,0000.0,0006.84,0002.07,0001.25
2024-03-10 06:26:00,SystemResetWarning,0828.6,4.99,000.00,018.3,017.2,000.0,027.0,020.0,08.8,0000.0,0006.09,0002.09,0001.22
2024-03-10 06:27:00,SystemResetWarning,0828.7,4.99,000.00,018.3,017.2,000.0,027.0,020.0,08.8,0000.0,0005.95,0002.07,0001.18
2024-03-10 06:28:00,SystemResetWarning,0828.7,5.03,000.00,018.3,017.2,000.0,027.0,020.0,08.7,0000.0,0005.86,0002.04,0001.16
2024-03-10 06:29:00,SystemResetWarning,0828.7,5.00,000.00,018.3,017.2,000.0,027.0,020.0,09.1,0000.0,0005.86,0002.06,0001.14
2024-03-10 06:30:00,SystemResetWarning,0828.7,5.00,000.00,018.2,017.1,000.0,027.0,020.0,09.1,0000.0,0005.88,0002.06,0001.12
2024-03-10 06:31:00,SystemResetWarning,0828.7,4.99,000.00,018.2,017.1,000.0,027.0,020.0,09.1,0000.0,0004.82,0001.99,0001.12
2024-03-10 06:32:00,SystemResetWarning,0828.7,5.01,000.00,018.2,017.1,000.0,027.0,020.0,09.0,0000.0,0004.38,0002.00,0001.11
2024-03-10 06:33:00,SystemResetWarning,0828.7,5.00,000.00,018.2,017.1,000.0,027.0,020.0,08.7,0000.0,0004.37,0002.00,0001.10
2024-03-10 06:34:00,SystemResetWarning,0828.7,5.00,000.00,018.2,017.1,000.0,027.0,020.0,08.6,0000.0,0004.42,0002.01,0001.10
2024-03-10 06:35:00,SystemResetWarning,0828.7,5.00,000.00,018.2,017.1,000.0,027.0,020.0,08.6,0000.0,0005.21,0002.03,0001.10
2024-03-10 06:36:00,SystemResetWarning,0828.7,5.01,000.00,018.2,017.1,000.0,027.0,020.0,08.5,0000.0,0005.43,0002.04,0001.09
2024-03-10 06:37:00,SystemResetWarning,0828.6,4.99,000.00,018.2,017.1,000.0,027.0,020.0,08.7,0000.0,0005.40,0002.02,0001.08
2024-03-10 06:38:00,SystemResetWarning,0828.6,4.99,000.00,018.2,017.1,000.0,027.0,020.0,08.4,0000.0,0005.39,0002.02,0001.09
2024-03-10 06:39:00,SystemResetWarning,0828.6,5.00,000.00,018.2,017.1,000.0,027.0,020.0,08.2,0000.0,0005.84,0002.04,0001.11
2024-03-10 06:40:00,SystemResetWarning,0828.6,5.01,000.00,018.2,017.1,000.0,027.0,020.0,08.5,0000.0,0005.97,0001.95,0001.10
2024-03-10 06:41:00,SystemResetWarning,0828.6,5.00,000.00,018.2,017.1,000.0,027.0,020.0,08.3,0000.0,0006.00,0001.93,0001.11
2024-03-10 06:42:00,SystemResetWarning,0828.6,4.99,000.00,018.2,017.1,000.0,027.0,020.0,08.2,0000.0,0006.16,0002.00,0001.12
2024-03-10 06:43:00,SystemResetWarning,0828.6,4.99,000.00,018.2,017.1,000.0,027.0,020.0,08.9,0000.0,0006.25,0002.02,0001.12
2024-03-10 06:44:00,SystemResetWarning,0828.6,4.99,000.00,018.2,017.1,000.0,027.0,020.0,08.6,0000.0,0006.30,0002.06,0001.13
2024-03-10 06:45:00,SystemResetWarning,0828.6,5.01,000.00,018.2,017.1,000.0,027.0,020.0,08.7,0000.0,0006.26,0002.05,0001.14
2024-03-10 06:46:00,SystemResetWarning,0828.6,5.01,000.00,018.2,017.1,000.0,027.0,020.0,08.4,0000.0,0005.55,0002.00,0001.14
2024-03-10 06:47:00,SystemResetWarning,0828.6,5.00,000.00,018.2,017.0,000.0,027.0,020.0,08.4,0000.0,0005.36,0002.07,0001.15
2024-03-10 06:48:00,SystemResetWarning,0828.6,5.00,000.00,018.2,017.0,000.0,027.0,020.0,08.3,0000.0,0005.24,0002.08,0001.15
2024-03-10 06:49:00,SystemResetWarning,0828.6,5.00,000.00,018.2,017.0,000.0,027.0,020.0,08.1,0000.0,0005.48,0002.12,0001.16
2024-03-10 06:50:00,SystemResetWarning,0828.6,5.00,000.00,018.2,017.0,000.0,027.0,020.0,08.1,0000.0,0005.59,0002.14,0001.16
2024-03-10 06:51:00,SystemResetWarning,0828.6,5.00,000.00,018.2,017.2,000.0,027.0,020.0,08.1,0000.0,0005.41,0002.16,0001.17
2024-03-10 06:52:00,SystemResetWarning,0828.7,5.02,000.00,018.4,018.0,000.0,027.1,020.4,08.1,0000.0,0006.14,0002.17,0001.17
2024-03-10 06:53:00,SystemResetWarning,0828.7,4.98,000.00,018.6,019.0,000.0,027.1,020.9,08.0,0000.0,0006.67,0002.14,0001.17
2024-03-10 06:54:00,SystemResetWarning,0828.6,4.99,000.00,018.8,019.1,000.0,027.1,021.0,08.0,0000.0,0006.56,0002.05,0001.16
2024-03-10 06:55:00,SystemResetWarning,0828.6,5.02,000.00,018.8,018.9,000.0,027.1,020.8,08.0,0000.0,0006.72,0002.06,0001.17
2024-03-10 06:56:00,SystemResetWarning,0828.6,4.99,000.00,018.7,018.7,000.0,027.0,020.6,08.0,0000.0,0006.66,0002.04,0001.17
2024-03-10 06:57:00,SystemResetWarning,0828.6,4.99,000.00,018.7,018.4,000.0,027.0,020.4,07.9,0000.0,0006.80,0002.08,0001.17
2024-03-10 06:58:00,SystemResetWarning,0828.6,4.99,000.00,018.7,018.2,000.0,027.0,020.3,08.2,0000.0,0006.67,0002.07,0001.17
2024-03-10 06:59:00,SystemResetWarning,0828.6,5.01,000.00,018.6,018.0,000.0,027.0,020.2,08.5,0000.0,0006.49,0002.00,0001.16
